住商エアロシステム株式会社の企業情報(東京都千代田区)

最新の会社情報

住商エアロシステム株式会社

法人番号: 1010001020185

所在地: 東京都千代田区一ツ橋1丁目2番2号

更新: '18/07/23

法人情報変更履歴

企業情報変更履歴(新設, 名称変更, 所在地変更等)

#変更年月日変更内容
1'15/10/05新規登録
2'15/10/05新規登録
3'18/07/23【所在地変更】旧: 東京都中央区晴海1丁目8番8号 → 新: 東京都千代田区一ツ橋1丁目2番2号

会社詳細情報

項目内容
商号 / 名称住商エアロシステム株式会社
法人番号1010001020185
郵便番号〒1000003
所在地東京都千代田区一ツ橋1丁目2番2号
最終変更日2018-07-23
法人番号指定日2015-10-05

調達履歴

#受注日事業名金額省庁名
1'15/04/01質量分析装置(衛生分析車ユニット用)保守整備¥2,268,000防衛省
2'15/04/28CABLE ASSY,GPIB外2品目 3EA¥1,620,000防衛省
3'15/05/26TEST SET,COUNTERMAESURES DISPE 1EA¥7,354,800防衛省
4'15/06/05DISPENSER,COUNTER MEASURES 外2品目 45EA¥20,856,960防衛省
5'15/06/10SLEEVE INDICATOR¥6,652,800防衛省
6'15/06/10DE-ICE DISTRIBUTOR VALVE ASSEMBLY20EA¥8,877,600防衛省
7'15/06/22KIT,OTB AC PWR SOURCE REPLACEM 外4品目 6EA¥2,721,600防衛省
8'15/06/25INSULATOR,BUSHING 外14品目 52EA¥34,452,000防衛省
9'15/06/25RETAINER,PACKING 外4品目 11EA¥7,473,600防衛省
10'15/06/30ASE 構成品修理(国外修理) 1EA¥2,538,000防衛省
11'15/07/17PIN外4品目                       一式¥16,545,600防衛省
12'15/07/17CAP外2品目                       一式¥3,283,200防衛省
13'15/07/17SLEEVE AND SCREENS,VALVE外7品目  一式¥30,315,600防衛省
14'15/07/17VALVE CAP外2品目                 一式¥4,222,800防衛省
15'15/07/17BEARING BALL外1品目              一式¥4,687,200防衛省
16'15/07/17PIN外4品目¥16,545,600防衛省
17'15/07/17CAP外2品目¥3,283,200防衛省
18'15/07/17SLEEVE AND SCREENS,VALVE外7品目¥30,315,600防衛省
19'15/07/17VALVE CAP外2品目¥4,222,800防衛省
20'15/07/17BEARING BALL外1品目¥4,687,200防衛省
21'15/07/22DISPLAY UNIT, MFD¥1,477,440防衛省
22'15/07/31RING,RETAINING外12品目           一式¥23,889,600防衛省
23'15/07/31CABLE IGNITION外10品目           一式¥13,068,000防衛省
24'15/07/31RING,RETAINING外12品目¥23,889,600防衛省
25'15/07/31CABLE IGNITION外10品目¥13,068,000防衛省
26'15/08/07TORQUE ARM,LOWER(MACHINING)-NL12EA¥4,384,800防衛省
27'15/08/07WASHER,SPECIAL-MAIN LANDING GEAR外2品目一式¥7,862,400防衛省
28'15/08/07WINDOW ASSY RIGHT OBLIQUE外1品目 一式¥77,954,400防衛省
29'15/08/07NIPPLE ASSY外1品目               一式¥15,703,200防衛省
30'15/08/07PAN-SEAT                      3EA¥3,164,400防衛省
31'15/08/18MULTI FUNCTION DISPLAY¥9,028,800防衛省
32'15/08/20U-125A航空機用タイヤ(ノーズ/輸入)¥2,008,800防衛省
33'15/08/20U-125A航空機用タイヤ(ノーズ/輸入)¥1,609,200防衛省
34'15/08/20U-125A航空機用タイヤ(メイン/輸入)¥7,446,600防衛省
35'15/08/20U-125A航空機用タイヤ(メイン/輸入)¥8,424,000防衛省
36'15/08/26DISPLAY UNIT, MFDほか¥59,529,600防衛省
37'15/08/26CONTROL,RADIO SET P/N706585-852 修理(国外診断) 2EA¥5,427,000防衛省
38'15/08/28液状有毒化学剤検知識別装置の外注整備¥1,067,040防衛省
39'15/08/28FAN                           1EA¥1,602,720防衛省
40'15/08/28VALVE外1品目                     一式¥17,166,600防衛省
41'15/08/28HOUSING,VALVE外3品目             一式¥31,028,400防衛省
42'15/08/28FUEL PUMP INLINE AUX          5EA¥4,806,000防衛省
43'15/08/28BRAKE外2品目                     一式¥24,991,200防衛省
44'15/08/28SOLENOID,ROTARY-RANGE FAILURE外2品目一式¥16,102,800防衛省
45'15/08/28LINING                        290EA¥2,049,840防衛省
46'15/08/28SHAFT ASSEMBLY,SPLINED,INPUT,外5品目一式¥49,518,000防衛省
47'15/08/28PACKING,PREFORMED外9品目         一式¥32,151,600防衛省
48'15/08/28PRESSURE SENSOR外6品目           一式¥8,553,600防衛省
49'15/08/28ADAPTER PRESSURE OILER 1/2外16品目一式¥43,372,800防衛省
50'15/08/28GASKET外25品目                   一式¥34,160,400防衛省
51'15/08/28PLUG外16品目                     一式¥40,143,600防衛省
52'15/08/28VALVE ASSY,COMBINATION,FILL-BU外1品目一式¥21,945,600防衛省
53'15/08/28REDUCER VALVE外1品目             一式¥35,542,800防衛省
54'15/08/28SYNCHRO TRANSOLVER-SIZE 8     32EA¥6,469,200防衛省
55'15/08/31INDICATOR-OIL LEVEL ASSY外4品目  一式¥226,951,200防衛省
56'15/08/31PLATE THRUST外11品目             一式¥606,020,400防衛省
57'15/08/31COMPENSATOR外26品目              一式¥180,975,600防衛省
58'15/08/31ECM装置 AN/ALE-47(H) 構成品修理(国外診断) 4EA¥3,931,200防衛省
59'15/09/02SHROUD ASSY外8品目               一式¥55,706,400防衛省
60'15/09/02FRAME ASSEMBLY外17品目           一式¥68,418,000防衛省
61'15/09/02CABLE,ELECTRICAL              11EA¥60,982,200防衛省
62'15/09/02SELF-SEALING COUPLING外15品目    一式¥34,938,000防衛省
63'15/09/02BYPASS SHUTOFF VALVE外39品目     一式¥216,518,400防衛省
64'15/09/02PANEL外9品目                     一式¥64,519,200防衛省
65'15/09/02PIN,STRAIGHT,HEADLESS外7品目     一式¥39,225,600防衛省
66'15/09/02FRONT MTG ASSY ALLISON T-56A8外3品目一式¥16,545,600防衛省
67'15/09/02MAINFOLD ASSY                 1EA¥7,889,400防衛省
68'15/09/02BOLT-MACH外5品目                 一式¥34,884,000防衛省
69'15/09/02CUPLING-HOSE外1品目              一式¥29,980,800防衛省
70'15/09/02PITOT STATIC TUB外9品目          一式¥67,651,200防衛省
71'15/09/07空中線272200-10¥410,940,000防衛省
72'15/09/08チャフ・フレア射出装置用整備器材¥58,266,000防衛省
73'15/09/08試験用機関銃(その1)¥3,801,600防衛省
74'15/09/10SHAFT-TWISTER LINK,RH-MLG外8品目 一式¥381,780,000防衛省
75'15/09/10VALVE                         26EA¥91,335,600防衛省
76'15/09/10ARM-INPUT ASSY外3品目            一式¥100,575,000防衛省
77'15/09/10GEAR DRIVE外7品目                一式¥79,444,800防衛省
78'15/09/11NUT-HEX NYLON CAP 3125-UNJ外3品目一式¥269,514,000防衛省
79'15/09/11CYLINDER                      1EA¥7,473,600防衛省
80'15/09/14C-2航空機用タイヤ(メイン・ノーズ/輸入)¥47,952,000防衛省
81'15/09/16BODY外16品目                     一式¥169,430,400防衛省
82'15/09/16VALVE ASSY外1品目                一式¥9,396,000防衛省
83'15/09/16VALVE,ON OFF                  3EA¥2,764,800防衛省
84'15/09/16WASHER外19品目                   一式¥176,752,800防衛省
85'15/09/16PUMP外9品目                      一式¥27,799,200防衛省
86'15/09/16BONDED TUBE FORM MOUNT        25EA¥3,196,800防衛省
87'15/09/16STUD STR外6品目                  一式¥15,498,000防衛省
88'15/09/16DECAL外10品目                    一式¥29,646,000防衛省
89'15/09/16GUIDE外12品目                    一式¥67,327,200防衛省
90'15/09/17HOUSING-ASSY,LOWER SWIVEL-NLG外11品目一式¥326,538,000防衛省
91'15/09/24WINDOW,OPTICAL INSTRUMENT 8EA¥18,705,600防衛省
92'15/09/25FILTER 78EA¥2,689,200防衛省
93'15/09/29COVER ASY TERM外34品目           一式¥119,210,400防衛省
94'15/09/29ROD END ASSY外1品目              一式¥174,074,400防衛省
95'15/09/29BRACKET外44品目                  一式¥828,900,000防衛省
96'15/09/29SLEEVE-CONCENTRIC外18品目        一式¥210,254,400防衛省
97'15/09/29RESTRICTOR,FLUID FLOW外21品目    一式¥100,936,800防衛省
98'15/09/29BUSHING-MLG外77品目              一式¥72,165,600防衛省
99'15/09/29NOZZLE ASSY外4品目               一式¥202,154,400防衛省
100'15/09/29CHECK VALVE外15品目              一式¥99,036,000防衛省
101'15/09/30MAIN FUEL NOZZLE              258EA¥62,456,400防衛省
102'15/10/14MOTOR ASSY 5EA¥7,290,000防衛省
103'15/10/20INNER WHEEL HALF ASSYほか¥7,419,600防衛省
104'15/10/21ARM ASSY, AUXILIARY-TAIL GEARほか¥5,734,800防衛省
105'15/10/23VALVE BODY                    10EA¥39,916,800防衛省
106'15/10/23P-S PROBE AERO.COMP,ELEC.HTD,115V21EA¥34,020,000防衛省
107'15/10/23CABLE-RESCUE HOIST            27EA¥5,248,800防衛省
108'15/10/23CRT/SHIELD ASSY 4EA¥10,476,000防衛省
109'15/10/23CHANNEL SELECT ASSY 2EA¥9,622,800防衛省
110'15/11/12HARNESS外1品目                   一式¥3,888,000防衛省
111'15/11/12CABLE ASSY外7品目 21EA¥13,348,800防衛省
112'15/11/12ASE 構成品修理(国外修理) 6EA¥14,396,400防衛省
113'15/11/1884mm無反動砲(B)用補助雷管¥2,667,600防衛省
114'15/11/20PLUGほか¥5,846,040防衛省
115'15/11/20THERMAL RELIEF VALVEほか¥2,879,280防衛省
116'15/11/20BEARING¥16,079,040防衛省
117'15/11/25疑似負荷N-DA-113( )¥130,799,880防衛省
118'15/11/26F-15航空機用維持部品(輸入・その1)¥310,500,000防衛省
119'15/11/26GEARSHAFT SPUR外1品目            一式¥29,975,400防衛省
120'15/11/26RESISTOR,SPECIAL ASSEMBLY外3品目 一式¥2,651,400防衛省
121'15/11/26RESTRICTOR,FLOW START FUEL/PU 5EA¥2,694,600防衛省
122'15/11/27P-S PROBE AERO.COMP.,ELEC.HTD.,115Vほか¥36,981,360防衛省
123'15/12/02GEROTOR ASSEMBLY 6020 X.5805ほか¥8,581,680防衛省
124'15/12/07RELIEF VALVE RUBBERほか¥9,879,840防衛省
125'15/12/09CIRCUIT CARD外19品目             一式¥237,081,600防衛省
126'15/12/09ACCUMULATOR                   40EA¥99,576,000防衛省
127'15/12/09GEARSHAFT,SPUR外75品目           一式¥497,394,000防衛省
128'15/12/09PANEL,ILLUMINATED外1品目 10EA¥10,216,800防衛省
129'15/12/09SWITCH,SENSITIVE93EA¥6,864,480防衛省
130'15/12/11戦闘機用空中戦技訓練システム¥1,020,600,000防衛省
131'15/12/11DC MOTOR SEPARATE CASE GND, MODIFIED¥4,968,000防衛省
132'15/12/15INDICATOR,TEMPERATUREほか¥163,080,000防衛省
133'15/12/16RAMP ACTUATORほか¥23,101,200防衛省
134'15/12/16CYLINDER ASSY,CARGO HOOKほか¥5,454,000防衛省
135'15/12/18BELL CRANK                    9EA¥33,944,400防衛省
136'15/12/18PRESSURE PLT & LIN ASSY       18EA¥14,590,800防衛省
137'15/12/18PLATE FORM                    500EA¥2,376,000防衛省
138'15/12/21C-1/EC-1/YS-11/E-2C航空機エンジン消火用部品(輸入)¥1,620,000防衛省
139'15/12/21低速標的機GDRN-F2用補用部品(輸入)¥36,666,000防衛省
140'15/12/21SCREW FLAT HD                 10EA¥1,960,200防衛省
141'15/12/22TUBE ASSY外2品目                 一式¥31,687,200防衛省
142'16/01/14VALVE¥1,739,880防衛省
143'16/01/18DRUM & SPRING ASSY            32EA¥4,903,200防衛省
144'16/01/18BEARING RACE                  70EA¥9,579,600防衛省
145'16/01/20MAINTENANCE KIT外2品目           一式¥15,638,400防衛省
146'16/01/22PIN                           4EA¥3,402,000防衛省
147'16/01/26P-1航空機用タイヤ(ノーズ)¥6,091,200防衛省
148'16/01/28I/O Board IOB-3Dほか¥3,816,720防衛省
149'16/01/28大気/地表プローブ¥5,545,800防衛省
150'16/01/28COVERほか¥13,046,400防衛省
151'16/01/28HOUSING,COMPRESSOR¥7,662,600防衛省
152'16/01/28CABLEほか¥17,373,960防衛省
153'16/01/29F-15航空機緊急脱出装置用部品(輸入・その4)¥98,496,000防衛省
154'16/01/29T-4航空機緊急脱出装置用部品(輸入・その4)¥47,088,000防衛省
155'16/01/29戦闘機用空中戦技訓練システム 初度部品¥137,916,000防衛省
156'16/02/04UH-60J搭載電子機器 初度部品(輸入)(その4)¥5,551,200防衛省
157'16/02/08HOSE ASSY外57品目                一式¥977,400,000防衛省
158'16/02/10RETAINER,ROLLER BEARING外22品目  一式¥37,098,000防衛省
159'16/02/12携帯式化学物質モニターの外注整備¥4,694,760防衛省
160'16/02/16CH-47整備用部品(輸入・その6)¥24,977,160防衛省
161'16/02/19チャフ/フレア射出装置(AN/ALE-47(PJ)・SH-60K用)¥83,440,800防衛省
162'16/02/19ELECTRONIC COMPONENTS ASSEMBLY外2品目 60EA¥56,592,000防衛省
163'16/02/19FILTER,BAND PASS外2品目 54EA¥22,842,000防衛省
164'16/03/03GREASE SEALほか¥1,980,720防衛省
165'16/03/03VALVE ASSYほか¥24,559,200防衛省
166'16/03/03E-767用 ミッション・システム 構成品修理(国外修理) 9EA¥11,242,800防衛省
167'16/03/04UH-60J航空機用機体初度部品(輸入・その3)¥9,369,000防衛省
168'16/03/04チャフ・フレア・ディスペンサー AN/ALE-47(H)¥41,904,000防衛省
169'16/03/075.56mm徹甲弾¥1,771,200防衛省
170'16/03/077.62mmAP8徹甲弾-TNT9曳光弾リンク¥183,670,200防衛省
171'16/03/08IO BOARD ASSYほか¥6,325,560防衛省
172'16/03/08TRAC-A ROTODOME(国外修理)         1EA¥286,146,000防衛省
173'16/03/0960mm迫撃砲(B)用弾薬¥168,596,640防衛省
174'16/03/10射距離転輪ほか¥12,131,640防衛省
175'16/03/11可搬型燃料計試験器ほか¥17,452,800防衛省
176'16/03/11DIFFUSER AND CLAMP,AIR        3EA¥11,950,200防衛省
177'16/03/17INDICATOR,TEMPERATUREほか¥94,662,000防衛省
178'16/03/18LCD ASSY¥72,360,000防衛省
179'16/03/22TUBE ASSY(.125OD),START FUELほか¥73,558,800防衛省
180'16/03/22VALVE,SOLENOID FUELほか¥135,831,600防衛省
181'16/03/25GUN CONTROL UNIT 国外診断10EA¥7,506,000防衛省
182'16/03/28F-15航空機緊急脱出装置用部品(輸入・その5)¥50,220,000防衛省
183'16/03/29CABLEほか¥2,550,960防衛省
184'16/03/29SCREW, RETAINER HEAT SHEILDほか¥3,499,200防衛省
185'16/03/31液状有毒化学剤検知・識別装置¥99,824,400防衛省
186'16/03/31CH-47整備用部品(輸入・その12)¥39,830,400防衛省
187'16/03/31SHAFT-EXTENSION¥5,076,000防衛省
188'16/03/31液状有毒化学剤検知・識別装置¥99,792,000防衛省
189'16/03/31迫撃砲用縮射訓練具¥9,774,000防衛省
190'16/03/31HOLDING FIXTURE,HOIST¥1,183,680防衛省
191'16/04/01質量分析装置(衛生分析車ユニット用)臨時整備¥3,240,000防衛省
192'16/06/21FILTER外20品目 105EA¥29,700,000防衛省
193'16/06/21NUT,PLAIN,ROUND外42品目 129EA¥58,104,000防衛省
194'16/06/27SLEEVE INDICATOR MDI model AS-131SC/4P1/71¥6,204,600防衛省
195'16/08/05CH-47J航空機用タイヤ(メイン/輸入)¥1,922,400防衛省
196'16/08/05U-125A航空機用タイヤ(メイン/輸入)¥8,424,000防衛省
197'16/08/05U-125A航空機用タイヤ(ノーズ/輸入)¥1,587,600防衛省
198'16/08/16DIAL ASSY外1品目 24EA¥5,637,600防衛省
199'16/08/19U-125A航空機用タイヤ(メイン/輸入)¥3,488,400防衛省
200'16/08/19U-125A航空機用タイヤ(ノーズ/輸入)¥952,560防衛省
201'16/08/23INDICATOR,LIQUIDほか¥67,845,600防衛省
202'16/08/26C-2航空機用タイヤ(メイン・ノーズ/輸入)¥83,538,000防衛省
203'16/08/30GAGE                          24EA¥7,225,200防衛省
204'16/08/30DEPRSSIO TRAVEL外6品目 29EA¥8,035,200防衛省
205'16/09/01BODY                          8EA¥45,181,800防衛省
206'16/09/02INDICATOR,HORIZONTAL SITUATION¥17,550,000防衛省
207'16/09/02INDICATOR,HORIZONTAL SITUATIONほか¥37,692,000防衛省
208'16/09/05HOUSING STATOR                1EA¥101,714,400防衛省
209'16/09/05ROTOR ASSEMBLY,MATCHED SET    2EA¥68,644,800防衛省
210'16/09/05低速標的機GDRN-F2用補用部品(輸入)¥15,066,000防衛省
211'16/09/12INDICATOR RING外14品目¥3,294,000防衛省
212'16/09/12BARREL                        7EA¥63,401,400防衛省
213'16/09/12LINER,BEARING外7品目¥3,952,800防衛省
214'16/09/12PISTON & PLATE ASSY外2品目¥23,511,600防衛省
215'16/09/14E-767用 ミッション・システム 構成品修理(国外修理) 4EA¥8,154,000防衛省
216'16/09/15CONTROL,SPEED WIPER外1品目¥14,893,200防衛省
217'16/09/15BOOT DEICER外4品目¥16,302,600防衛省
218'16/09/15VALVE                         15EA¥6,366,600防衛省
219'16/09/15ELEMENT                       10EA¥1,830,600防衛省
220'16/09/16ELEMENT                       8EA¥1,792,800防衛省
221'16/09/16THEMOSWITCH MIDGET            11EA¥2,764,800防衛省
222'16/09/21撃針突出量ゲージ、(B)専用ほか¥3,343,680防衛省
223'16/09/28FUEL CAP外21品目¥133,056,000防衛省
224'16/09/28SHROUD外9品目¥63,892,800防衛省
225'16/09/28RECEPTACLE外3品目¥85,017,600防衛省
226'16/09/28VALVE ASSY.外5品目¥67,500,000防衛省
227'16/09/28SWITCH外3品目¥8,164,800防衛省
228'16/09/28GASKET外5品目¥4,060,800防衛省
229'16/09/28ARM ASSY外7品目¥21,848,400防衛省
230'16/09/28RING,RETAINING外5品目¥3,186,000防衛省
231'16/09/28CAP & ADAPTER                 10EA¥4,546,800防衛省
232'16/09/28WASHER-LOCK外1品目¥3,558,600防衛省
233'16/09/29CAP RELIEF VALVE(580/4406)外1品目¥2,419,200防衛省
234'16/09/29BUSHING外2品目¥2,181,600防衛省
235'16/09/29BALL JOINT SOCKET外1品目¥24,710,400防衛省
236'16/09/29SCUFF PLATE RECEPTACLE外3品目¥5,475,600防衛省
237'16/09/29HOUSING(590)~ASSY~外3品目¥14,461,200防衛省
238'16/09/29P-S PROBE AERO.COMP,ELEC.HTD,115V27EA¥51,008,400防衛省
239'16/09/29SHAFT ASSEMBLY,FLEXIBLE       6EA¥33,372,000防衛省
240'16/09/29PUMP                          1EA¥13,035,600防衛省
241'16/09/29BARREL CYLINDER外2品目¥42,778,800防衛省
242'16/09/29VALVE RELIEF外2品目¥11,275,200防衛省
243'16/09/29GASKET,COVER,FUEL外5品目¥45,954,000防衛省
244'16/09/29CONNECTING LINK               19EA¥17,625,600防衛省
245'16/09/29SUPPORT,STRUCTURAL COMPONENT,A外1品目¥10,130,400防衛省
246'16/09/29VALVE,CHECK                   5EA¥2,732,400防衛省
247'16/09/29CABLE ASSY                    18EA¥2,208,600防衛省
248'16/09/29RETENSION ASSY                50EA¥6,220,800防衛省
249'16/09/29PIN,COTTER外2品目¥12,128,400防衛省
250'16/09/29PLATE,COVER外11品目¥56,808,000防衛省
251'16/09/29LOW PRESSURE CAP ASSEMBLY外16品目¥36,439,200防衛省
252'16/09/29BEARING COVER外7品目¥18,154,800防衛省
253'16/09/29SEAL                          385EA¥1,890,000防衛省
254'16/09/29RETAINER                      39EA¥1,915,920防衛省
255'16/09/29VALVE ASSY外1品目¥4,870,800防衛省
256'16/09/29WASHER-THRUST外1品目¥2,413,800防衛省
257'16/09/29FIREX HALON外1品目¥2,030,400防衛省
258'16/09/30NOZZLE ASSY外9品目¥85,449,600防衛省
259'16/09/30DART-ASSY14200-1TESTMUSTBEBUILT26EA¥79,714,800防衛省
260'16/09/30INDICATOR-OIL LEVEL ASSY外3品目¥183,492,000防衛省
261'16/09/30HOUSING,GEARBOX,MATCHED SET   3EA¥110,764,800防衛省
262'16/09/30PITOT PROBE ELEC.HTD.,TEMP.CON外3品目¥78,343,200防衛省
263'16/09/30SWITCH,PRESSURE外14品目¥178,880,400防衛省
264'16/09/30ADAPTER                       91EA¥73,774,800防衛省
265'16/09/30RING AND PIN-RETAINING外8品目¥20,935,800防衛省
266'16/09/30SENSOR                        5EA¥11,410,200防衛省
267'16/09/30P-S PROBE AERO.COMP.,ELEC.HTD..115V外1品目¥20,746,800防衛省
268'16/09/30PITOT PROBE ELEC.HTD.,TEMP.CON3EA¥2,484,000防衛省
269'16/09/30STRUT & PROBE ASSY,871BU      2EA¥1,840,320防衛省
270'16/09/30BLADE ASSY HIGH BRIDGE,AIRFOIL,FLUID20EA¥3,498,120防衛省
271'16/09/30BLADE,FLEXIBLE FLUID DISPENSING8EA¥3,032,640防衛省
272'16/09/30SOLENOID,ROTARY-RANGE FAILURE外2品目¥7,354,800防衛省
273'16/09/30CONVERTER STANDARD, 155:1 GEARING外1品目¥5,038,200防衛省
274'16/09/30BARREL-CYL外1品目¥3,770,280防衛省
275'16/09/30ADAPTER外4品目¥52,779,600防衛省
276'16/09/30PANEL外30品目¥75,718,800防衛省
277'16/09/30SCREW FLAT HD外18品目¥13,128,480防衛省
278'16/09/30BLADE REFILL外1品目¥2,170,800防衛省
279'16/09/30THRUSTER,CARTRIDGE ACTUATED25EA¥60,847,200防衛省

所在地の地図

近隣の飲食店

会社情報をもっと調べる

関連する企業を調べる

最新情報から探す

近隣の会社情報を見る

特定非営利活動法人世界遺産アカデミー

東京都/千代田区'15/10/05更新


特定非営利活動法人世界遺産アカデミーは 東京都 千代田区 一ツ橋1丁目1番1号に所在し、2015-10-05に法人番号が設定されました。最新の活動は2015-10-05の【新規登録】です。
株式会社毎日広告社

東京都/千代田区'15/10/05更新


株式会社毎日広告社は 東京都 千代田区 一ツ橋1丁目1番1号に所在し、2015-10-05に法人番号が設定されました。最新の活動は2015-10-05の【新規登録】です。
一般社団法人日本加圧医療学会

東京都/千代田区'15/10/05更新


一般社団法人日本加圧医療学会は 東京都 千代田区 一ツ橋1丁目1番1号株式会社毎日学術フォーラム内に所在し、2015-10-05に法人番号が設定されました。最新の活動は2015-10-05の【新規登録】です。
SPPテクノロジーズ株式会社

東京都/千代田区'20/07/28更新


SPPテクノロジーズ株式会社は 東京都 千代田区 一ツ橋1丁目2番2号住友商事竹橋ビル4階に所在し、2015-10-05に法人番号が設定されました。最新の活動は2020-07-28の【国内所在地の変更】です。
株式会社ジェイ・エム・アール生活総合研究所

東京都/千代田区'15/10/05更新


株式会社ジェイ・エム・アール生活総合研究所は 東京都 千代田区 一ツ橋1丁目1番1号に所在し、2015-10-05に法人番号が設定されました。最新の活動は2015-10-05の【新規登録】です。
株式会社FIBC2

東京都/千代田区'17/09/07更新


株式会社FIBC2は 東京都 千代田区 一ツ橋1丁目1番1号に所在し、2017-09-07に法人番号が設定されました。最新の活動は2017-09-07の【新規登録】です。
公益社団法人企業情報化協会

東京都/千代田区'16/07/12更新


公益社団法人企業情報化協会は 東京都 千代田区 一ツ橋1丁目2番2号に所在し、2015-10-05に法人番号が設定されました。最新の活動は2016-07-12の【国内所在地の変更】です。
有限会社メディカルスキンアンドヘアクリニック

東京都/千代田区'15/10/05更新


有限会社メディカルスキンアンドヘアクリニックは 東京都 千代田区 一ツ橋1丁目1番1号に所在し、2015-10-05に法人番号が設定されました。最新の活動は2015-10-05の【新規登録】です。
白熊印アラスカ食品販売株式会社

東京都/千代田区'15/10/05更新


白熊印アラスカ食品販売株式会社は 東京都 千代田区 一ツ橋1丁目1番1号パレスサイドビル9階に所在し、2015-10-05に法人番号が設定されました。最新の活動は2015-10-05の【新規登録】です。
住商鋼管株式会社

東京都/千代田区'19/04/26更新


住商鋼管株式会社は 東京都 千代田区 一ツ橋1丁目2番2号に所在し、2015-10-05に法人番号が設定されました。最新の活動は2019-04-26の【登記記録の閉鎖等】です。